Starlink 30797

operational
NORAD ID: 58154 Int'l Des: 2023-166 Owner: SPXS Country: US Constellation: starlink
LEOCIRCULAR

关于 Starlink 30797

正在加载描述...

实时位置

正在加载3D地球...

即将过境

高度历史

Altitude vs Time

uPlot chart will show altitude changes over time

两行轨道根数

1 58154U 23166E 25306.12935550 .00000918 00000-0 43137-4 0 9997
2 58154 53.1602 92.2894 0001663 87.9194 272.1997 15.30193516113499
Epoch: Nov 2, 2025 • Age: 36 hours

当前状态

高度 475.4 km
速度 7.63 km/s
星下点 22.22°N, 169.33°W
发射日期 Oct 29, 2023
运行时间 2 years
类型 internet

技术详情

分类 Payload
质量 730.00 kg
干质量 700.00 kg
总质量 730.00 kg
长度 0.30 m
直径 4.10 m
跨度 29.00 m
形状 Box + pan
制造商 SPXS
平台类型 Starlink V2M
阶段状态 In Orbit
所有者/国家 SPXS/US

大型星座

Loading constellations...